Showing default

HBTSS-SV1, 58960

Orbit data source: Space-Track

HBTSS-SV1, 58960 is a payload satellite owned by MDA (US) in LEO that was launched on Wed, 14 Feb 2024 UTC via an FALCON 9 launch vehicle from the Air Force Eastern Test Range (AFETR). Payload-class satellites include a variety of spacecraft equipped with specific instruments for various scientific and technological missions. These include communications satellites like Starlink; space stations such as the ISS; scientific satellites like the Hubble; Earth observation satellites from companies like Planet Labs, Umbra, and HawkEye 360; GPS; miniature CubeSats for education and research; and military/defense satellites.

Loading next visibility...
Identifier
58960, 2024-028F
Orbit
LEO
Country
Flag of USUS
Related business
Manufacturer
L3Harris SIS
Mission
Operational Commercial Early Warn
Bus & Motor
HBT-L3H, Unknown motor
Mass
~1,000 kg wet, ~1,000 kg dry
Launch date (UTC)
2024-02-14 (3 years ago)
Launch vehicle
FALCON 9
Launch site
Air Force Eastern Test Range (AFETR)
Object type
Payload
Rocket body
Debris
Shape & HBR
Box + 2 Pan, 1.0 m
Radar Cross Section
1.012 m², Large (>1 m²)

Expand to show TLE details & history
Last TLE update: 9 hours ago

TLE from 9 hours ago
0 HBTSS-SV1
1 58960U 24028F   26258.23550794  .00004869  00000-0  35902-3 0  9991
2 58960  39.9904 330.2377 0008909 117.8095 242.3603 15.03734101120701
Epoch: 2026-09-15T05:39Z
TLE epoch observation values (Epoch: 2026-09-15T05:39:07.886Z)
Latitude
0.00001°
Longitude
-108.74951°
Altitude
557.712 km
Speed
7.583 km/s
True Right ascension
22h 00m 57s
True Declination
0° 00' 00"
Sunlit
Object was in full shadow at epoch
Visualization orbit readout
Latitude
Unknown
Longitude
Unknown
Altitude
Unknown
Speed
Unknown
Apparent Right ascension
Unknown
Apparent Declination
Unknown
Sunlit
N/A
Visualization observer readout
Local Sidereal Time
07:10:11
Azimuth
Unknown
Elevation
Unknown
Doppler factor
Unknown
Orbital elements
Apogee altitude
563.995 km
Perigee altitude
551.637 km
Semi-major axis
6,935.953 km
Eccentricity
0.00089
Inclination
39.9904°
RAAN
330.2377°
Arg. of periapsis
117.8095°
True anomaly
242.26991°
Mean anomaly
242.3603°
Eccentric anomaly
242.3151°
Mean motion
3.75737 °/min
Orbital period
95.81 mins
BSTAR
0.00035902
Loading maneuver chart data...
Computing Atmospheric mass density...
Loading historical data...
Loading historical data...
Loading historical data...
Loading historical data...
Loading historical data...
Loading historical data...
Loading historical data...
Other satellites on launch #28 in the year 2024 (2024-02-14 UTC)

Documentation

Showing up to 5 results
|